Weather History for KLOT - November, 2012

Change the Weather History Date:

Sunday, November 4, 2012

  Actual Average Record
Temperature  
Mean Temperature 39 °F 46 °F  
Max Temperature 48 °F 55 °F 73 °F (2003)
Min Temperature 29 °F 38 °F 19 °F (1995)
Degree Days  
Heating Degree Days 26 19  
Month to date heating degree days 101 74  
Since 1 July heating degree days 644 561  
Cooling Degree Days 0 0  
Month to date cooling degree days 0 0  
Year to date cooling degree days 1267 862  
Moisture  
Dew Point 29 °F    
Average Humidity 75    
Maximum Humidity 99    
Minimum Humidity 39    
Precipitation  
Precipitation T in 0.13 in 1.07 in (2003)
Month to date precipitation T 0.49  
Year to date precipitation 27.55 34.85  
Snow  
Snow T in 0.00 in T in (2012)
Month to date snowfall T 0.0  
Since 1 July snowfall T 0.0  
Since 1 September snowfall T 0.0  
Snow Depth 0.00 in    
Sea Level Pressure  
Sea Level Pressure 30.20 in    
Wind  
Wind Speed 5 mph (North)    
Max Wind Speed 12 mph    
Max Gust Speed 16 mph    
Visibility 10 miles    
Events      
T = Trace of Precipitation, MM = Missing Value Source: NWS Daily Summary

Daily Weather History Graph

Daily Weather History Graph

Search for Another Location

Airport or City:

Trip Planner

Search our weather history database for the weather conditions in past years. The results will help you decide how hot, cold, wet, or windy it might be!

Date:

Astronomy

Nov. 04, 2012 Rise Set
Actual Time 6:28 AM CST 4:42 PM CST
Civil Twilight 5:59 AM CST 5:11 PM CST
Nautical Twilight 5:26 AM CST 5:44 PM CST
Astronomical Twilight 4:54 AM CST 6:17 PM CST
Moon 9:20 PM CST (11/4) 11:12 AM CST (11/4)
Length of Visible Light 11h 12m
Length of Day
10h 14m
Waning Gibbous, 72% of the Moon is Illuminated
Nov 4
Waning Gibbous
Nov 6
Last Quarter
Nov 13
New
Nov 20
First Quarter
Nov 28
Full

Hourly Weather History & Observations

Time (CST) Temp. Windchill Dew Point Humidity Pressure Visibility Wind Dir Wind Speed Gust Speed Precip Events Conditions
12:15 AM 32.9 °F 28.5 °F 30.7 °F 92% 30.21 in 10.0 mi NNW 4.6 mph - N/A   Clear
12:35 AM 33.1 °F 30.0 °F 30.7 °F 91% 30.21 in 10.0 mi NNW 3.5 mph - N/A   Scattered Clouds
12:55 AM 32.9 °F 29.8 °F 30.7 °F 92% 30.21 in 10.0 mi NNW 3.5 mph - N/A   Scattered Clouds
1:15 AM 32.7 °F 28.3 °F 30.2 °F 90% 30.21 in 10.0 mi NNW 4.6 mph - N/A   Clear
1:35 AM 32.0 °F 27.5 °F 30.0 °F 92% 30.21 in 10.0 mi NNW 4.6 mph - N/A   Clear
1:55 AM 31.8 °F 28.5 °F 30.0 °F 93% 30.21 in 10.0 mi North 3.5 mph - N/A   Clear
1:15 AM 32.0 °F 27.5 °F 29.8 °F 92% 30.21 in 10.0 mi North 4.6 mph - N/A   Scattered Clouds
1:35 AM 32.0 °F 27.5 °F 30.2 °F 93% 30.21 in 10.0 mi North 4.6 mph - N/A   Scattered Clouds
1:55 AM 31.8 °F 28.5 °F 29.7 °F 92% 30.20 in 10.0 mi North 3.5 mph - N/A   Clear
2:15 AM 32.9 °F 29.8 °F 30.4 °F 90% 30.19 in 10.0 mi North 3.5 mph - N/A   Clear
2:35 AM 31.6 °F 27.0 °F 30.0 °F 94% 30.20 in 10.0 mi NNW 4.6 mph - N/A   Mostly Cloudy
2:55 AM 30.6 °F 27.1 °F 28.9 °F 94% 30.21 in 10.0 mi NNW 3.5 mph - N/A   Overcast
3:15 AM 31.8 °F 26.2 °F 30.2 °F 94% 30.21 in 10.0 mi NNW 5.8 mph - N/A   Overcast
3:35 AM 32.0 °F 26.4 °F 30.2 °F 93% 30.21 in 10.0 mi NNW 5.8 mph - N/A   Overcast
3:55 AM 32.4 °F 26.9 °F 30.9 °F 94% 30.21 in 10.0 mi NNW 5.8 mph - N/A   Overcast
4:15 AM 33.3 °F 28.9 °F 30.9 °F 91% 30.21 in 10.0 mi North 4.6 mph - N/A   Overcast
4:35 AM 33.3 °F 28.9 °F 31.1 °F 92% 30.22 in 10.0 mi North 4.6 mph - N/A   Mostly Cloudy
4:55 AM 33.3 °F 30.2 °F 31.1 °F 92% 30.22 in 10.0 mi NW 3.5 mph - N/A   Overcast
5:15 AM 33.4 °F 29.1 °F 31.1 °F 91% 30.23 in 10.0 mi NNW 4.6 mph - N/A   Overcast
5:35 AM 33.3 °F 30.2 °F 31.5 °F 93% 30.22 in 10.0 mi NNW 3.5 mph - N/A   Overcast
5:55 AM 33.8 °F - 31.5 °F 91% 30.23 in 10.0 mi Calm Calm - N/A   Overcast
6:15 AM 33.4 °F 30.4 °F 31.6 °F 93% 30.22 in 10.0 mi NNE 3.5 mph - N/A   Mostly Cloudy
6:35 AM 33.8 °F 29.6 °F 31.6 °F 92% 30.22 in 7.0 mi NNE 4.6 mph - N/A   Overcast
6:55 AM 34.3 °F 30.2 °F 32.0 °F 91% 30.23 in 7.0 mi North 4.6 mph - N/A   Overcast
7:15 AM 35.6 °F 32.8 °F 32.0 °F 87% 30.23 in 10.0 mi NNW 3.5 mph - N/A   Overcast
7:35 AM 36.5 °F 31.8 °F 31.8 °F 83% 30.23 in 10.0 mi North 5.8 mph - N/A   Mostly Cloudy
7:55 AM 36.9 °F 32.2 °F 30.9 °F 79% 30.23 in 10.0 mi North 5.8 mph - N/A   Mostly Cloudy
8:15 AM 37.6 °F 33.1 °F 30.7 °F 76% 30.24 in 10.0 mi North 5.8 mph - N/A   Overcast
8:35 AM 38.3 °F 33.9 °F 29.8 °F 72% 30.23 in 10.0 mi North 5.8 mph - N/A   Scattered Clouds
8:55 AM 39.2 °F 34.2 °F 30.0 °F 70% 30.24 in 10.0 mi North 6.9 mph - N/A   Scattered Clouds
9:15 AM 40.6 °F 34.8 °F 28.9 °F 63% 30.23 in 10.0 mi North 9.2 mph - N/A   Scattered Clouds
9:35 AM 41.5 °F 35.9 °F 27.9 °F 58% 30.23 in 10.0 mi North 9.2 mph - N/A   Scattered Clouds
10:15 AM 42.8 °F 37.5 °F 26.2 °F 52% 30.24 in 10.0 mi NNW 9.2 mph - N/A   Scattered Clouds
10:35 AM 43.5 °F 39.4 °F 25.9 °F 50% 30.23 in 10.0 mi NNW 6.9 mph - N/A   Clear
10:55 AM 44.8 °F 39.9 °F 24.8 °F 46% 30.23 in 10.0 mi North 9.2 mph - N/A   Clear
11:15 AM 45.5 °F 41.8 °F 24.3 °F 43% 30.22 in 10.0 mi North 6.9 mph - N/A   Clear
11:35 AM 46.4 °F 41.5 °F 23.0 °F 40% 30.21 in 10.0 mi NNE 10.4 mph - N/A   Clear
11:55 AM 46.6 °F - 23.0 °F 39% 30.20 in 10.0 mi NNW 6.9 mph - N/A   Clear
12:15 PM 46.9 °F - 24.8 °F 42% 30.19 in 10.0 mi NNW 9.2 mph - N/A   Clear
12:35 PM 46.4 °F 41.9 °F 24.8 °F 43% 30.19 in 10.0 mi North 9.2 mph - N/A   Clear
12:55 PM 46.8 °F - 24.8 °F 42% 30.19 in 10.0 mi North 8.1 mph - N/A   Clear
1:15 PM 47.3 °F - 24.4 °F 41% 30.18 in 10.0 mi North 10.4 mph - N/A   Clear
1:35 PM 48.2 °F - 24.8 °F 40% 30.17 in 10.0 mi NNW 8.1 mph 16.1 mph N/A   Clear
1:55 PM 47.5 °F - 23.7 °F 39% 30.17 in 10.0 mi North 11.5 mph - N/A   Clear
2:15 PM 47.5 °F - 24.3 °F 40% 30.17 in 10.0 mi North 10.4 mph - N/A   Clear
2:35 PM 47.5 °F - 23.5 °F 39% 30.17 in 10.0 mi North 5.8 mph - N/A   Clear
2:55 PM 47.1 °F - 23.5 °F 40% 30.17 in 10.0 mi North 5.8 mph - N/A   Clear
3:15 PM 46.6 °F - 24.1 °F 41% 30.17 in 10.0 mi NNE 8.1 mph - N/A   Clear
3:35 PM 46.2 °F 42.7 °F 24.4 °F 42% 30.17 in 10.0 mi North 6.9 mph - N/A   Clear
3:55 PM 45.5 °F 43.2 °F 24.4 °F 44% 30.17 in 10.0 mi North 4.6 mph - N/A   Clear
4:15 PM 43.7 °F 42.1 °F 24.6 °F 47% 30.17 in 10.0 mi North 3.5 mph - N/A   Clear
4:35 PM 40.3 °F 38.2 °F 24.6 °F 54% 30.17 in 10.0 mi NNE 3.5 mph - N/A   Clear
4:55 PM 38.7 °F 33.6 °F 24.1 °F 56% 30.17 in 10.0 mi NE 6.9 mph - N/A   Clear
5:15 PM 36.9 °F 30.7 °F 24.3 °F 60% 30.17 in 10.0 mi NNE 8.1 mph - N/A   Clear
5:35 PM 37.8 °F 30.7 °F 24.3 °F 58% 30.18 in 10.0 mi ENE 10.4 mph - N/A   Clear
5:55 PM 38.5 °F 32.1 °F 30.4 °F 73% 30.18 in 10.0 mi ENE 9.2 mph - N/A   Clear
6:15 PM 38.1 °F 32.9 °F 31.8 °F 78% 30.19 in 10.0 mi East 6.9 mph - N/A   Clear
6:35 PM 35.8 °F 30.1 °F 31.3 °F 84% 30.19 in 10.0 mi East 6.9 mph - N/A   Clear
6:55 PM 36.0 °F 31.1 °F 32.0 °F 86% 30.19 in 10.0 mi ENE 5.8 mph - N/A   Clear
7:15 PM 35.8 °F 30.9 °F 32.0 °F 86% 30.18 in 10.0 mi ENE 5.8 mph - N/A   Clear
7:35 PM 33.8 °F 30.8 °F 32.0 °F 93% 30.18 in 10.0 mi East 3.5 mph - N/A   Clear
7:55 PM 35.1 °F 32.2 °F 32.4 °F 90% 30.19 in 10.0 mi East 3.5 mph - N/A   Clear
8:15 PM 32.4 °F - 30.9 °F 94% 30.19 in 10.0 mi Calm Calm - N/A   Clear
8:35 PM 33.6 °F 30.6 °F 32.0 °F 94% 30.19 in 10.0 mi East 3.5 mph - N/A   Clear
8:55 PM 32.7 °F - 31.8 °F 96% 30.19 in 10.0 mi Calm Calm - N/A   Clear
9:15 PM 32.9 °F - 32.0 °F 96% 30.19 in 10.0 mi Calm Calm - N/A   Clear
9:35 PM 34.2 °F - 33.1 °F 96% 30.19 in 10.0 mi Calm Calm - N/A   Clear
9:55 PM 34.3 °F - 33.4 °F 97% 30.19 in 10.0 mi Calm Calm - N/A   Clear
10:15 PM 33.8 °F - 33.1 °F 97% 30.19 in 10.0 mi Calm Calm - N/A   Clear
10:35 PM 32.0 °F 28.7 °F 31.8 °F 99% 30.19 in 7.0 mi NE 3.5 mph - N/A   Clear
10:55 PM 31.5 °F - 30.9 °F 98% 30.19 in 7.0 mi Calm Calm - N/A   Clear